Cloud_Cover
100 10 5 22 22 100 83 100 100 100 100 100 100 100 100 100 100 100 100 100 100 99 99 56 0 0 0 2 0 0 0 0 0 0 0 0 0 3 2 3 4 36 0 0 0 4 3
100 62 65 93 100 92 100 100 100 100 100 100 100 100 100 100 100 100 100 100 100 100 96 100 18 0 0 0 0 0 0 0 0 0 0 5 16 5 5 5 7 2 43 25 1 0 0
100 100 96 98 97 38 100 100 100 100 100 100 100 100 100 100 100 100 100 100 100 100 100 100 47 0 43 0 0 0 0 0 2 4 5 0 5 11 32 83 76 7 22 1 1 1 0
100 100 100 100 100 100 79 84 100 100 100 100 100 100 100 100 100 100 100 98 68 96 100 100 12 14 27 0 0 0 1 2 3 5 5 5 51 98 84 40 79 45 14 88 2 0 0
100 100 100 100 100 100 100 100 100 100 100 100 100 100 100 100 98 89 11 11 12 24 25 19 7 10 2 0 0 0 0 0 5 5 5 12 83 84 80 99 100 100 81 35 5 0 2
100 100 100 100 100 100 99 100 100 100 100 100 100 100 100 100 100 91 12 0 0 0 0 0 1 37 0 0 0 0 0 5 5 5 5 24 54 96 76 100 95 84 99 89 35 5 36
100 100 100 100 100 100 100 100 100 100 100 100 100 100 74 28 100 78 16 2 0 0 0 0 0 0 0 0 0 0 0 0 5 34 100 99 100 100 100 100 100 100 100 85 31 93 64
100 100 100 100 100 100 100 100 100 100 100 100 100 100 100 33 41 80 14 0 0 0 9 0 0 0 0 0 0 1 1 3 35 100 92 96 100 27 50 65 84 100 100 74 76 95 72
100 100 100 100 100 100 100 100 100 100 100 100 100 100 100 100 54 12 5 0 3 0 16 0 0 0 0 2 2 0 0 5 8 93 100 100 33 67 83 100 100 100 100 100 44 10 3
100 100 100 100 100 100 100 100 100 100 100 100 100 100 100 100 100 7 5 4 5 0 3 0 0 0 0 1 0 0 0 4 30 70 100 100 67 99 100 100 100 100 100 100 100 100 98
100 100 100 100 100 100 100 100 100 100 100 100 100 100 100 100 100 72 5 5 5 0 0 0 0 0 0 0 2 0 0 5 16 48 100 100 72 100 100 100 100 100 100 100 100 100 100
100 100 100 100 100 100 100 100 100 100 100 100 100 100 100 100 99 42 66 5 5 4 1 0 0 0 0 0 5 5 5 5 5 77 100 7 49 100 98 100 97 100 100 100 100 100 100
100 100 100 100 100 100 100 100 100 100 100 100 100 100 100 100 88 24 42 50 5 5 0 1 0 0 0 0 5 5 5 7 31 90 5 21 87 98 100 100 91 100 100 100 94 100 99
68 100 86 46 100 100 100 100 100 100 100 100 100 96 100 100 100 76 53 60 5 4 0 0 5 5 0 1 5 5 5 5 5 15 73 100 100 96 80 67 93 99 100 100 100 100 100
100 100 100 97 100 100 100 100 100 100 100 100 78 89 91 100 100 100 46 97 5 3 0 4 4 5 5 5 24 64 9 5 5 5 8 10 15 37 100 100 96 89 96 98 100 86 95
8 100 100 100 100 100 100 100 100 100 100 100 34 42 100 100 68 100 35 88 5 5 4 4 3 14 16 7 83 95 37 5 28 86 29 45 82 5 34 16 100 98 100 93 99 100 100
89 100 100 98 100 100 100 100 100 100 100 100 75 38 87 100 100 100 100 82 10 5 5 5 0 6 5 5 84 96 86 21 22 100 97 81 90 39 54 77 94 100 100 100 100 100 100
27 32 100 92 100 100 100 100 100 100 100 100 19 26 97 100 92 90 90 100 5 11 5 5 0 5 67 23 84 100 100 5 97 72 100 94 80 94 100 31 89 100 100 100 100 100 100
100 100 100 100 100 100 100 100 100 100 95 68 46 88 100 83 71 100 47 100 64 5 17 5 0 5 50 90 100 100 100 49 8 78 94 95 95 80 100 84 85 100 100 62 99 100 100
72 96 99 100 100 100 100 100 100 100 71 22 14 100 100 100 91 100 70 100 86 33 79 5 1 1 50 70 91 100 100 98 13 85 22 80 88 98 96 33 14 40 100 100 94 99 100
36 5 52 100 100 100 100 100 100 100 85 59 45 16 28 100 99 100 97 100 98 85 100 5 4 3 5 72 99 100 100 100 49 13 59 62 77 91 98 38 84 58 61 99 98 100 97
100 94 59 100 100 100 100 100 100 100 100 100 14 22 5 62 95 100 100 100 99 81 100 14 5 5 5 42 93 100 100 100 100 100 78 80 45 53 82 88 31 6 14 81 100 100 100
100 100 98 99 100 100 100 100 100 100 100 91 0 6 40 60 100 89 100 100 100 78 100 36 5 5 15 5 67 100 100 100 100 59 100 77 57 42 34 13 5 51 94 82 100 100 100
100 100 100 100 100 100 100 100 100 100 99 4 4 2 6 49 100 100 100 100 100 53 100 100 78 5 35 76 19 99 98 100 100 100 99 100 100 52 5 6 5 99 54 26 100 51 100
78 89 100 100 100 100 100 100 100 100 100 73 5 2 5 38 100 99 100 100 100 97 95 100 37 5 5 95 49 78 91 100 97 100 20 13 100 37 8 35 31 100 92 28 100 50 100
48 83 100 100 100 100 100 100 100 100 100 100 100 14 5 5 100 100 100 100 100 100 100 100 87 5 5 26 65 20 85 68 98 100 66 12 65 19 12 8 91 100 86 100 100 100 100
30 58 100 100 100 100 100 100 100 100 100 99 100 56 8 6 100 93 100 100 100 100 96 100 100 6 5 5 51 76 78 99 100 100 100 6 5 27 6 83 8 100 100 88 100 100 100
95 62 100 100 100 100 100 100 100 100 100 100 100 99 37 6 100 100 100 84 100 100 97 94 100 51 5 5 6 94 94 83 96 100 100 99 5 5 5 21 18 16 100 96 100 100 100
100 84 100 100 100 100 100 100 100 100 100 100 100 98 95 54 94 100 98 83 100 100 99 99 100 68 23 5 5 75 100 100 96 100 100 100 72 1 5 1 1 4 48 89 100 100 100